Regional Weather Roundup
Issued by NWS

Home | Current Version | Previous Version | Text Only | Print | Product List | Glossary On
Versions: 1 2 3 4 5 6 7 8 9 10 11 12 13 14 15 16 17 18 19 20 21 22 23 24 25 26 27 28 29 30 31 32 33 34 35 36 37 38 39 40 41 42 43 44 45 46 47 48 49 50
000
ASCA42 TJSJ 231211
RWRPR
PUERTO RICO/U.S. VIRGIN ISLANDS HOURLY WEATHER ROUNDUP
NATIONAL WEATHER SERVICE SAN JUAN PR
800 AM AST SAT AUG 23 2014

PRZ001-004-231300-
PUERTO RICO

CITY           SKY/WX    TMP DP  RH WIND       PRES   REMARKS
SAN JUAN LMM   PTSUNNY   81  75  83 SE8       29.87F
PONCE          PTSUNNY   79  75  89 E7        29.85R
AGUADILLA      MOSUNNY   79  73  83 CALM      29.87R
CEIBA          MOSUNNY   81  75  83 SW7       29.92S
$$

PRZ006-007-231300-
U.S. VIRGIN ISLANDS

CITY           SKY/WX    TMP DP  RH WIND       PRES   REMARKS
CHARLOTTE AMA  MOSUNNY   82  75  78 SE13      29.90
CHRISTIANSTED  MOSUNNY   82  77  83 SE14G23   29.92  HX  91
$$

HOURLY WEATHER ROUNDUP FOR THE NEWS MEDIA

CITY           SKY/WX    TMP DP  RH WIND       PRES   REMARKS
MIAMI          MOSUNNY   82  74  76 NW3       29.96S
ORLANDO        MOSUNNY   80  73  79 CALM      29.99S
NEW YORK       PTSUNNY   68  60  75 NE9       30.08R
NEWARK         PTSUNNY   70  62  76 NE6       30.08R
CHICAGO        FOG       73  71  93 E3        29.98R VSB 1
HARTFORD       MOSUNNY   64  60  87 N7        30.09S
BOSTON         MOSUNNY   64  58  80 N7        30.13R
DALLAS         CLEAR     80  67  64 S7        29.99R
PHILADELPHIA   PTSUNNY   69  62  78 NE8       30.05R


USA.gov is the U.S. government's official web portal to all federal, state and local government web resources and services.